Weather in Long Beach

United States     33°48′22″N   118°07′10″W
temp.,
°C
wind,
m/s
gust,
m/s
humid.,
%
clouds,
%
prec.,
mm/h
press.,
hPa
HPBL,
m
25 may, wed
wed2523:00+16s228037 0.1 1011366
02:00+15wsw21830 0.0 1010184
05:00+15wsw11830 0.0 1010123
08:00+17sw21806 0.0 1011215
11:00+19sw436822 0.0 1012416
14:00+19ssw546933 0.0 1012454
17:00+19ssw547132 0.0 1011445
20:00+17sw337934 0.0 1012369
26 may, thu
thu2623:00+16sw228135 0.0 1013306
02:00+16sw118119 0.0 1012240
05:00+16ssw118313 0.0 1013196
08:00+17ssw2176100 0.0 1014260
11:00+20sw426219 0.0 1014444
14:00+20sw646219 0.0 1014476
17:00+20sw546721 0.0 1014534
20:00+17ssw437723 0.0 1015442
27 may, fri
fri2723:00+17sw3279100 0.0 1016435
02:00+16sw227865 0.0 1015393
05:00+16sw22805 0.0 1015261
08:00+17sw22765 0.0 1016428
11:00+19sw426515 0.0 1016567
14:00+20sw5463100 0.0 1015499
17:00+19sw5465100 0.0 1014580
20:00+18sw4474100 0.0 1014426
28 may, sat
sat2823:00+16sw3380100 0.0 1014387
02:00+16ssw338291 0.0 1012441
05:00+16s227989 0.0 1013540
08:00+17sse337255 0.0 1013654
11:00+19s446110 0.0 1012732
14:00+20ssw54596 0.0 1011656
17:00+19sw546519 0.0 1010549
20:00+18s45726 0.0 1009540
29 may, sun
sun2923:00+17se557619 0.0 1008520
02:00+17se557670 0.0 1007512
05:00+17se3574100 0.0 1007368
08:00+18se3369100 0.0 1008562
11:00+21ssw42587 0.0 1008823
14:00+20sw656119 0.0 1007785
17:00+19sw77540 0.0 1005536
20:00+19sw33500 0.0 1005519